(°F)
25°
25°
26°
27°
27°
28°
29°
(°F)
12°
12°
13°
14°
15°
16°
16°
ENE
ENE
ENE
ENE
ENE
E
E
(mph)
14-22
14-23
15-22
14-22
14-22
14-21
14-21
(in)
0
0
0
0
0
0
0
(%)
0
0
0
0
0
0
0

Sun elevation

/ -8.1°
sun-icon
UV 0
08:51
16:44
Waxing crescent moon (71°)
13:26
22:41

METAR for 52.53°N 31.02°E (UMGG)

Time Conditions Temperature/
Dewpoint
Wind Visibility Weather Clouds Pressure Change Raw
IFR 24.8°F / 23°F 60º 14kt >10km - Overcast 500ft 1019 No Significant change UMGG 091400Z 06007MPS 9999 OVC005 M04/M05 Q1019 NOSIG RMK QBB170
IFR 24.8°F / 23°F 50º 12kt >10km - Broken Clouds 700ft
Overcast 2200ft
1018 No Significant change UMGG 091330Z 05006MPS 9999 BKN007 OVC022 M04/M05 Q1018 NOSIG
IFR 24.8°F / 23°F 60º 12kt >10km - Broken Clouds 700ft
Overcast 2200ft
1018 No Significant change UMGG 091300Z 06006MPS 9999 BKN007 OVC022 M04/M05 Q1018 NOSIG
IFR 24.8°F / 23°F 50º 12kt >10km - Broken Clouds 700ft
Overcast 2200ft
1018 No Significant change UMGG 091230Z 05006MPS 9999 BKN007 OVC022CB M04/M05 Q1018 NOSIG
IFR 24.8°F / 23°F 50º 14kt >10km - Broken Clouds 700ft
Overcast 2100ft
1018 No Significant change UMGG 091200Z 05007MPS 9999 BKN007 OVC021CB M04/M05 Q1018 NOSIG
IFR 24.8°F / 23°F 50º 10kt Gust 16kt >10km - Overcast 700ft 1018 No Significant change UMGG 091130Z 05005G08MPS 9999 OVC007CB M04/M05 Q1018 NOSIG
IFR 24.8°F / 23°F 50º 14kt >10km - Broken Clouds 700ft
Overcast 2000ft
1018 No Significant change UMGG 091100Z 05007MPS 9999 BKN007 OVC020CB M04/M05 Q1018 NOSIG
IFR 24.8°F / 23°F 30º 14kt >10km - Broken Clouds 700ft
Overcast 2100ft
1018 No Significant change UMGG 091030Z 03007MPS 9999 BKN007 OVC021CB M04/M05 Q1018 NOSIG
IFR 24.8°F / 23°F 30º 14kt >10km - Broken Clouds 700ft
Overcast 2100ft
1018 No Significant change UMGG 091000Z 03007MPS 9999 BKN007 OVC021CB M04/M05 Q1018 NOSIG
IFR 24.8°F / 21.2°F 30º 12kt >10km - Broken Clouds 800ft
Overcast 2100ft
1018 No Significant change UMGG 090930Z 03006MPS 9999 BKN008 OVC021CB M04/M06 Q1018 NOSIG
IFR 24.8°F / 21.2°F 30º 12kt >10km - Broken Clouds 800ft
Overcast 2100ft
1018 No Significant change UMGG 090900Z 03006MPS 9999 BKN008 OVC021CB M04/M06 Q1018 NOSIG
IFR 24.8°F / 23°F 40º 12kt >10km - Broken Clouds 900ft
Overcast 2700ft
1018 No Significant change UMGG 090830Z 04006MPS 9999 BKN009 OVC027CB M04/M05 Q1018 NOSIG
IFR 24.8°F / 23°F 50º 12kt >10km - Broken Clouds 900ft
Overcast 3100ft
1018 No Significant change UMGG 090800Z 05006MPS 9999 BKN009 OVC031CB M04/M05 Q1018 NOSIG
IFR 23°F / 21.2°F 60º 12kt >10km - Broken Clouds 800ft
Overcast 3000ft
1018 No Significant change UMGG 090730Z 06006MPS 9999 BKN008 OVC030CB M05/M06 Q1018 NOSIG
VFR 23°F / 21.2°F 70º 14kt >10km - Scattered Clouds 900ft
Overcast 3100ft
1017 No Significant change UMGG 090700Z 07007MPS 9999 SCT009 OVC031CB M05/M06 Q1017 NOSIG
VFR 23°F / 21.2°F 50º 14kt >10km - Few Clouds 900ft
Overcast 3200ft
1017 No Significant change UMGG 090630Z 05007MPS 9999 FEW009 OVC032CB M05/M06 Q1017 NOSIG
MVFR 23°F / 21.2°F 50º 14kt >10km - Scattered Clouds 1200ft
Overcast 2400ft
1017 No Significant change UMGG 090600Z 05007MPS 9999 SCT012 OVC024CB M05/M06 Q1017 NOSIG
MVFR 23°F / 21.2°F 50º 10kt Gust 16kt >10km - Overcast 1000ft 1017 No Significant change UMGG 090530Z 05005G08MPS 9999 OVC010 M05/M06 Q1017 NOSIG
IFR 23°F / 21.2°F 40º 10kt Gust 16kt >10km - Overcast 900ft 1016 No Significant change UMGG 090500Z 04005G08MPS 9999 OVC009 M05/M06 Q1016 NOSIG
IFR 21.2°F / 21.2°F 40º 10kt Gust 16kt >10km - Overcast 900ft 1016 No Significant change UMGG 090430Z 04005G08MPS 9999 OVC009 M06/M06 Q1016 NOSIG
IFR 21.2°F / 21.2°F 50º 10kt Gust 16kt >10km - Overcast 800ft 1016 No Significant change UMGG 090400Z 05005G08MPS 9999 OVC008 M06/M06 Q1016 NOSIG
IFR 23°F / 21.2°F 40º 10kt Gust 16kt >10km - Overcast 800ft 1016 No Significant change UMGG 090330Z 04005G08MPS 9999 OVC008 M05/M06 Q1016 NOSIG
IFR 23°F / 21.2°F 30º 10kt Gust 16kt >10km - Overcast 800ft 1016 No Significant change UMGG 090300Z 03005G08MPS 9999 OVC008 M05/M06 Q1016 NOSIG
IFR 23°F / 21.2°F 40º 12kt >10km - Broken Clouds 900ft
Overcast 2000ft
1015 No Significant change UMGG 090200Z 04006MPS 9999 BKN009 OVC020 M05/M06 Q1015 NOSIG

IFR

24.8°F / 23°F

[More]
Wind 60º 14kt
Visibility >10km
Weather -
Clouds Overcast 500ft
Pressure 1019
Change No Significant change
Raw UMGG 091400Z 06007MPS 9999 OVC005 M04/M05 Q1019 NOSIG RMK QBB170

IFR

24.8°F / 23°F

[More]
Wind 50º 12kt
Visibility >10km
Weather -
Clouds Broken Clouds 700ft
Overcast 2200ft
Pressure 1018
Change No Significant change
Raw UMGG 091330Z 05006MPS 9999 BKN007 OVC022 M04/M05 Q1018 NOSIG

IFR

24.8°F / 23°F

[More]
Wind 60º 12kt
Visibility >10km
Weather -
Clouds Broken Clouds 700ft
Overcast 2200ft
Pressure 1018
Change No Significant change
Raw UMGG 091300Z 06006MPS 9999 BKN007 OVC022 M04/M05 Q1018 NOSIG

IFR

24.8°F / 23°F

[More]
Wind 50º 12kt
Visibility >10km
Weather -
Clouds Broken Clouds 700ft
Overcast 2200ft
Pressure 1018
Change No Significant change
Raw UMGG 091230Z 05006MPS 9999 BKN007 OVC022CB M04/M05 Q1018 NOSIG

IFR

24.8°F / 23°F

[More]
Wind 50º 14kt
Visibility >10km
Weather -
Clouds Broken Clouds 700ft
Overcast 2100ft
Pressure 1018
Change No Significant change
Raw UMGG 091200Z 05007MPS 9999 BKN007 OVC021CB M04/M05 Q1018 NOSIG

IFR

24.8°F / 23°F

[More]
Wind 50º 10kt Gust 16kt
Visibility >10km
Weather -
Clouds Overcast 700ft
Pressure 1018
Change No Significant change
Raw UMGG 091130Z 05005G08MPS 9999 OVC007CB M04/M05 Q1018 NOSIG

IFR

24.8°F / 23°F

[More]
Wind 50º 14kt
Visibility >10km
Weather -
Clouds Broken Clouds 700ft
Overcast 2000ft
Pressure 1018
Change No Significant change
Raw UMGG 091100Z 05007MPS 9999 BKN007 OVC020CB M04/M05 Q1018 NOSIG

IFR

24.8°F / 23°F

[More]
Wind 30º 14kt
Visibility >10km
Weather -
Clouds Broken Clouds 700ft
Overcast 2100ft
Pressure 1018
Change No Significant change
Raw UMGG 091030Z 03007MPS 9999 BKN007 OVC021CB M04/M05 Q1018 NOSIG

IFR

24.8°F / 23°F

[More]
Wind 30º 14kt
Visibility >10km
Weather -
Clouds Broken Clouds 700ft
Overcast 2100ft
Pressure 1018
Change No Significant change
Raw UMGG 091000Z 03007MPS 9999 BKN007 OVC021CB M04/M05 Q1018 NOSIG

IFR

24.8°F / 21.2°F

[More]
Wind 30º 12kt
Visibility >10km
Weather -
Clouds Broken Clouds 800ft
Overcast 2100ft
Pressure 1018
Change No Significant change
Raw UMGG 090930Z 03006MPS 9999 BKN008 OVC021CB M04/M06 Q1018 NOSIG

IFR

24.8°F / 21.2°F

[More]
Wind 30º 12kt
Visibility >10km
Weather -
Clouds Broken Clouds 800ft
Overcast 2100ft
Pressure 1018
Change No Significant change
Raw UMGG 090900Z 03006MPS 9999 BKN008 OVC021CB M04/M06 Q1018 NOSIG

IFR

24.8°F / 23°F

[More]
Wind 40º 12kt
Visibility >10km
Weather -
Clouds Broken Clouds 900ft
Overcast 2700ft
Pressure 1018
Change No Significant change
Raw UMGG 090830Z 04006MPS 9999 BKN009 OVC027CB M04/M05 Q1018 NOSIG

IFR

24.8°F / 23°F

[More]
Wind 50º 12kt
Visibility >10km
Weather -
Clouds Broken Clouds 900ft
Overcast 3100ft
Pressure 1018
Change No Significant change
Raw UMGG 090800Z 05006MPS 9999 BKN009 OVC031CB M04/M05 Q1018 NOSIG

IFR

23°F / 21.2°F

[More]
Wind 60º 12kt
Visibility >10km
Weather -
Clouds Broken Clouds 800ft
Overcast 3000ft
Pressure 1018
Change No Significant change
Raw UMGG 090730Z 06006MPS 9999 BKN008 OVC030CB M05/M06 Q1018 NOSIG

VFR

23°F / 21.2°F

[More]
Wind 70º 14kt
Visibility >10km
Weather -
Clouds Scattered Clouds 900ft
Overcast 3100ft
Pressure 1017
Change No Significant change
Raw UMGG 090700Z 07007MPS 9999 SCT009 OVC031CB M05/M06 Q1017 NOSIG

VFR

23°F / 21.2°F

[More]
Wind 50º 14kt
Visibility >10km
Weather -
Clouds Few Clouds 900ft
Overcast 3200ft
Pressure 1017
Change No Significant change
Raw UMGG 090630Z 05007MPS 9999 FEW009 OVC032CB M05/M06 Q1017 NOSIG

MVFR

23°F / 21.2°F

[More]
Wind 50º 14kt
Visibility >10km
Weather -
Clouds Scattered Clouds 1200ft
Overcast 2400ft
Pressure 1017
Change No Significant change
Raw UMGG 090600Z 05007MPS 9999 SCT012 OVC024CB M05/M06 Q1017 NOSIG

MVFR

23°F / 21.2°F

[More]
Wind 50º 10kt Gust 16kt
Visibility >10km
Weather -
Clouds Overcast 1000ft
Pressure 1017
Change No Significant change
Raw UMGG 090530Z 05005G08MPS 9999 OVC010 M05/M06 Q1017 NOSIG

IFR

23°F / 21.2°F

[More]
Wind 40º 10kt Gust 16kt
Visibility >10km
Weather -
Clouds Overcast 900ft
Pressure 1016
Change No Significant change
Raw UMGG 090500Z 04005G08MPS 9999 OVC009 M05/M06 Q1016 NOSIG

IFR

21.2°F / 21.2°F

[More]
Wind 40º 10kt Gust 16kt
Visibility >10km
Weather -
Clouds Overcast 900ft
Pressure 1016
Change No Significant change
Raw UMGG 090430Z 04005G08MPS 9999 OVC009 M06/M06 Q1016 NOSIG

IFR

21.2°F / 21.2°F

[More]
Wind 50º 10kt Gust 16kt
Visibility >10km
Weather -
Clouds Overcast 800ft
Pressure 1016
Change No Significant change
Raw UMGG 090400Z 05005G08MPS 9999 OVC008 M06/M06 Q1016 NOSIG

IFR

23°F / 21.2°F

[More]
Wind 40º 10kt Gust 16kt
Visibility >10km
Weather -
Clouds Overcast 800ft
Pressure 1016
Change No Significant change
Raw UMGG 090330Z 04005G08MPS 9999 OVC008 M05/M06 Q1016 NOSIG

IFR

23°F / 21.2°F

[More]
Wind 30º 10kt Gust 16kt
Visibility >10km
Weather -
Clouds Overcast 800ft
Pressure 1016
Change No Significant change
Raw UMGG 090300Z 03005G08MPS 9999 OVC008 M05/M06 Q1016 NOSIG

IFR

23°F / 21.2°F

[More]
Wind 40º 12kt
Visibility >10km
Weather -
Clouds Broken Clouds 900ft
Overcast 2000ft
Pressure 1015
Change No Significant change
Raw UMGG 090200Z 04006MPS 9999 BKN009 OVC020 M05/M06 Q1015 NOSIG

TAF for 52.53°N 31.02°E (UMGG)

From till


From till Wind 40º 12kt. Visibility 5000m. Mist . Broken Clouds 700ft.
Temporarly from till Wind 60º 14kt. Visibility 1200m. Broken Clouds 400ft. Broken Clouds 1300ft.
From till Wind 80º 14kt. Visibility 2000m. Mist . Broken Clouds 500ft.
Temporarly from till Wind 110º 14kt. Visibility 305.775m. Fog . Obscured Sky.

Raw: TAF UMGG 091052Z 0912/1012 04006MPS 5000 BR BKN007 TEMPO 0914/0918 06007MPS 1200 BKN004 BKN013CB FM091800 08007MPS 2000 BR BKN005 TEMPO 0918/1012 11007MPS 0300 FG VV002

Radar and precipitation nowcast for 52.53°N 31.02°E

Drizzle
Light
Moderate
Heavy
Very Heavy
Hail

The location marker is placed on 52.53°N 31.02°E. This animation shows the precipitation radar for the last hour, as well as a 1h forecast. Drizzle or light snow fall might be invisible for the radar. Precipitation intensity is colour coded, ranging from light blue to orange.

Current satellite and rain images for 52.53°N 31.02°E

The location marker is placed on 52.53°N 31.02°E. [More]

The real-time satellite image combines visible light during daytime with infrared radiation during nighttime. At night, the image is not dark as infrared radiation can detect temperature differences. Unfortunately, low clouds and fog are difficult to distinguish from ground temperatures and thus can be almost invisible during the night. Meteosat satellite images for Europe are updated in real-time every 5 minutes. GOES-16/GOES-17 (North & South America) and Himawari (Asia) images update every 10 minutes.

Copyright 2021 EUMETSAT / meteoblue. / Copyright 2021 meteoblue